This is the latest recevied weather packets stored in our database for station/object AF5AA. If no packets are shown the sender has not sent any weather packets the latest 1 day(s).
| Time | Temp. | Humidity | Pressure | Rain* | Wind** | Luminosity | Snow |
|---|---|---|---|---|---|---|---|
| 1777987678 | 21.67° C | 89% | 1006.9 hPa | 0 mm | 0 m/s | 28 W/m² | - |
| 1777987376 | 21.67° C | 89% | 1007 hPa | 0 mm | 0 m/s | 17 W/m² | - |
| 1777987073 | 21.67° C | 89% | 1006.9 hPa | 0 mm | 0.89 m/s, 115° | 16 W/m² | - |
| 1777986770 | 21.67° C | 89% | 1007.1 hPa | 0 mm | 0 m/s | 7 W/m² | - |
| 1777986468 | 21.67° C | 89% | 1006.9 hPa | 0 mm | 0 m/s | 5 W/m² | - |
| 1777986166 | 21.67° C | 89% | 1007 hPa | 0 mm | 0 m/s | 4 W/m² | - |
| 1777985863 | 21.67° C | 88% | 1007.2 hPa | 0 mm | 0 m/s | 4 W/m² | - |
| 1777985560 | 21.67° C | 89% | 1006.9 hPa | 0 mm | 0 m/s | 7 W/m² | - |
| 1777985257 | 21.67° C | 89% | 1006.8 hPa | 0 mm | 0 m/s | 4 W/m² | - |
| 1777984954 | 21.67° C | 89% | 1006.8 hPa | 0 mm | 0 m/s | 5 W/m² | - |
| 1777984649 | 21.67° C | 89% | 1006.5 hPa | 0 mm | 0 m/s | 7 W/m² | - |
| 1777984346 | 21.67° C | 89% | 1006.8 hPa | 0 mm | 0 m/s | 5 W/m² | - |
| 1777984043 | 21.67° C | 89% | 1006.6 hPa | 0 mm | 0.45 m/s, 130° | 5 W/m² | - |
| 1777983740 | 21.11° C | 89% | 1006.7 hPa | 0 mm | 0.45 m/s, 120° | 3 W/m² | - |
| 1777983436 | 21.11° C | 89% | 1006.7 hPa | 0 mm | 0 m/s | 2 W/m² | - |
| 1777983133 | 21.11° C | 89% | 1006.5 hPa | 0 mm | 0 m/s | 2 W/m² | - |
| 1777982830 | 21.11° C | 89% | 1006.5 hPa | 0 mm | 0 m/s | 1 W/m² | - |
| 1777982525 | 21.11° C | 89% | 1006.3 hPa | 0 mm | 0.45 m/s, 131° | 1 W/m² | - |
| 1777982219 | 21.11° C | 89% | 1006.1 hPa | 0 mm | 0.45 m/s, 156° | 1 W/m² | - |
| 1777981917 | 21.11° C | 89% | 1006.1 hPa | 0 mm | 0 m/s | 1 W/m² | - |
| 1777981614 | 21.11° C | 89% | 1006 hPa | 0 mm | 0.45 m/s, 139° | 1 W/m² | - |
| 1777981310 | 21.11° C | 89% | 1006.1 hPa | 0 mm | 0 m/s | 0 W/m² | - |
| 1777981007 | 21.11° C | 89% | 1006.3 hPa | 0 mm | 0 m/s | 0 W/m² | - |
| 1777980703 | 21.11° C | 89% | 1006.3 hPa | 0 mm | 0 m/s | 0 W/m² | - |
| 1777980400 | 21.11° C | 89% | 1006.2 hPa | 0 mm | 0 m/s | 0 W/m² | - |
* Rain latest hour (hover to see other rain measurements)
** Current wind speed in m/s (hover to see current wind gust speed)